Temperature
20 21 21 22 22 22 20 19 19 19 19 19 19 19 19 20 20 20 20 20 20 20 20 20 20 20 20 20 20 19 19 19 19 18 18 18 18 17 17 17 17 17 17 16
20 22 22 22 22 22 22 21 20 20 19 19 19 19 19 19 19 19 19 20 20 20 20 20 20 20 20 20 19 19 19 19 19 18 18 18 17 17 17 17 17 16 17 16
18 20 21 20 21 21 21 21 20 19 19 18 17 17 18 18 18 18 18 19 19 19 20 20 20 20 20 20 20 19 19 19 19 18 18 17 17 17 17 17 17 16 16 16
16 18 19 19 20 21 21 20 19 19 18 18 17 17 17 18 18 17 18 18 18 19 19 19 20 20 20 20 19 19 19 19 18 18 17 17 17 17 16 16 16 16 16 16
16 17 18 19 19 19 19 18 18 18 17 17 17 16 16 16 17 17 17 18 18 18 18 19 19 19 19 19 19 18 18 18 18 18 17 17 17 17 16 16 16 16 16 15
16 17 17 18 18 18 18 17 18 17 17 17 17 16 15 15 16 16 17 17 17 17 17 17 17 18 18 18 18 17 17 17 17 17 17 17 16 16 16 16 16 16 15 15
16 16 17 17 18 18 18 17 17 17 17 17 16 15 15 15 15 15 16 16 16 16 16 16 16 17 17 16 16 16 16 17 16 16 16 16 16 16 15 15 15 15 14 14
15 16 16 16 17 17 16 16 16 16 16 16 15 15 14 15 14 15 15 15 15 15 15 15 15 16 15 15 15 15 16 16 15 15 15 15 15 15 14 14 14 14 14 14
14 15 14 15 15 16 17 16 16 16 16 15 14 14 14 14 14 14 14 14 14 14 14 14 14 15 14 14 14 14 14 14 14 14 14 14 14 13 13 13 13 13 13 13
13 14 14 15 16 16 17 16 16 16 15 15 14 14 13 13 14 14 14 14 14 14 14 13 13 13 13 13 13 14 14 13 13 13 13 13 13 13 13 13 13 13 12 12
13 14 14 15 15 16 16 16 15 15 15 14 14 14 13 13 13 13 13 13 13 13 13 13 13 12 12 12 13 13 13 13 12 12 12 12 13 12 12 12 12 12 12 12
14 14 14 14 15 16 15 15 15 14 14 14 14 13 13 13 13 13 13 12 12 12 12 12 12 12 12 12 12 12 12 12 12 12 12 12 12 12 12 12 12 11 11 11
15 15 15 14 15 15 15 14 14 14 14 13 13 13 13 13 13 13 12 12 12 12 12 12 12 12 11 11 12 12 11 11 11 11 11 11 11 11 11 11 11 11 11 11
15 15 14 14 14 14 14 14 14 14 13 13 13 13 13 13 12 12 12 12 12 12 11 11 11 11 11 11 11 11 11 11 11 11 11 11 11 11 11 10 10 10 10 10
15 15 14 14 14 14 14 14 13 13 13 13 13 13 13 12 12 12 12 12 12 11 11 11 11 11 11 11 11 11 11 10 10 10 10 10 10 10 10 10 10 9 9 9
14 14 14 14 14 14 14 14 13 13 13 13 13 12 12 12 12 12 11 11 11 11 11 11 10 10 10 10 10 10 10 10 10 10 10 10 10 9 9 9 9 9 9 8
14 13 13 13 13 13 13 13 13 13 13 13 12 12 12 12 11 11 11 11 11 11 10 10 10 10 10 10 10 10 9 9 9 9 9 9 9 9 8 8 8 8 7 7
14 14 14 14 13 13 13 13 13 13 12 12 12 12 12 11 11 11 11 11 10 10 10 10 10 10 9 9 9 9 9 9 9 9 8 8 8 8 8 7 7 7 7 6
13 13 13 13 13 13 13 12 12 12 12 12 12 11 11 11 11 11 10 10 10 10 10 9 9 9 9 9 9 8 8 8 8 8 8 8 7 7 7 6 6 6 6 6
13 13 13 13 12 12 12 12 12 12 12 11 11 11 11 11 10 10 10 10 10 9 9 9 9 9 8 8 8 8 8 8 7 7 7 7 6 6 6 6 5 5 5 5
12 12 12 12 12 12 12 12 11 11 11 11 11 11 10 10 10 10 10 10 9 9 9 9 8 8 8 8 7 7 7 7 6 6 6 6 5 5 5 5 5 4 4 4
11 12 11 11 11 11 11 11 11 11 11 11 11 10 10 10 10 10 9 9 9 9 8 8 8 8 7 7 7 6 6 6 6 5 5 5 5 4 4 4 4 3 3 3
11 11 11 11 11 11 11 11 11 11 10 10 10 10 10 9 9 9 9 9 8 8 8 7 7 7 6 6 6 6 5 5 5 4 4 4 4 3 3 3 3 3 2 2
11 11 11 11 10 10 10 10 10 10 10 10 10 10 9 9 9 9 8 8 8 7 7 7 6 6 6 5 5 5 4 4 4 4 3 3 3 3 2 2 2 2 2 2
10 10 10 10 10 10 10 10 10 10 10 9 9 9 9 9 8 8 8 7 7 7 6 6 5 5 5 4 4 4 4 3 3 3 3 2 2 2 2 1 1 1 1 1
10 10 10 10 9 9 9 9 9 9 9 9 8 8 8 8 7 7 7 6 6 6 5 5 5 4 4 4 3 3 3 3 2 2 2 2 1 1 1 1 1 1 0 0
9 9 9 9 9 9 9 9 8 8 8 8 8 7 7 7 7 6 6 6 5 5 5 4 4 4 3 3 3 2 2 2 2 1 1 1 1 1 0 0 0 0 -0 -0
Wind_Speed
6 5 4 4 4 5 5 8 8 8 9 10 9 7 5 4 4 5 5 6 7 8 8 9 10 11 12 13 12 12 12 12 12 11 9 9 9 8 8 8 9 9 9 8
4 4 2 3 4 5 5 5 5 6 6 6 5 4 3 4 4 4 4 5 4 5 6 7 9 11 11 11 12 11 12 12 10 9 9 9 9 9 8 8 8 8 9 9
4 5 3 3 4 5 3 3 6 6 7 7 6 5 5 5 5 5 5 4 4 2 3 3 4 7 9 10 10 10 11 10 9 8 9 9 8 8 9 9 8 8 9 9
2 1 4 5 4 2 5 3 1 4 7 10 10 8 7 5 7 6 6 6 5 5 5 3 2 3 6 7 8 9 8 7 7 8 8 6 6 7 7 6 7 8 8 8
3 4 3 4 3 1 4 2 2 7 10 12 13 12 9 7 8 8 8 8 7 6 6 5 4 3 6 7 6 6 6 6 7 8 8 7 7 6 6 6 7 7 6 7
3 4 6 5 4 2 5 1 1 7 11 10 9 6 3 4 8 10 10 9 8 7 8 8 6 6 9 7 6 4 3 3 3 4 6 7 7 6 5 6 6 5 6 6
4 4 4 2 4 2 4 7 4 7 8 6 4 6 8 9 10 10 11 11 10 10 10 8 7 9 10 9 6 4 5 5 5 4 3 3 3 3 3 3 3 3 4 4
3 3 4 3 2 4 5 4 6 7 9 13 13 13 12 11 11 11 11 11 10 11 11 10 9 11 11 9 6 6 7 7 6 5 3 2 3 2 2 3 2 2 1 1
2 2 2 2 2 2 5 7 6 8 11 16 15 14 13 11 11 11 11 10 9 11 11 10 10 10 11 7 6 7 8 7 5 5 4 3 3 2 2 2 2 2 2 2
1 0 1 3 3 4 8 9 9 12 14 15 15 14 13 11 10 10 10 9 9 10 11 10 9 10 8 7 7 8 8 6 5 5 5 4 3 2 2 2 2 2 1 1
2 1 3 5 5 7 10 12 14 14 14 14 15 14 12 11 10 10 9 8 8 9 9 8 8 8 7 7 8 8 7 6 5 5 5 5 4 3 2 1 2 3 2 2
3 4 4 4 5 10 14 13 14 17 16 13 13 13 12 10 9 9 8 8 8 8 8 7 7 7 7 7 7 8 7 6 5 4 4 3 3 4 5 3 3 2 2 2
2 4 7 8 10 11 14 14 15 15 15 14 11 12 11 9 8 8 8 8 7 7 6 6 6 7 6 6 7 8 7 5 4 4 4 3 3 3 3 5 7 6 5 4
6 9 11 10 11 12 15 16 16 15 14 12 11 11 11 9 8 8 7 6 6 6 6 6 7 6 5 6 7 7 6 6 5 4 4 4 3 2 2 2 3 3 5 5
9 10 12 13 13 13 14 16 16 14 13 11 10 10 10 10 8 7 6 6 7 7 6 6 6 5 5 6 7 6 5 4 4 4 4 3 3 3 3 3 3 2 3 4
12 13 14 14 14 13 13 14 14 11 10 10 9 8 8 8 8 6 5 6 6 5 4 5 4 3 4 6 6 6 5 7 6 4 4 4 4 3 3 3 3 2 2 2
13 11 12 12 12 11 11 11 10 9 9 9 8 8 8 8 7 6 5 4 5 4 3 3 2 3 4 5 5 4 4 5 7 5 4 3 3 3 3 3 2 2 1 1
11 10 10 12 12 12 10 9 9 8 8 7 7 7 7 6 6 5 4 4 4 4 3 1 2 3 4 5 4 3 3 3 3 3 3 3 3 3 2 2 2 2 2 2
14 13 12 11 11 11 10 9 8 7 7 7 8 7 6 5 5 4 4 5 4 2 2 2 3 4 3 5 5 3 3 3 3 3 3 4 4 3 3 3 3 3 3 3
12 12 12 11 10 10 9 7 7 7 6 7 7 7 6 5 4 4 5 3 1 1 1 2 3 3 3 4 5 3 3 3 3 3 3 3 3 4 4 4 4 3 3 3
11 11 11 10 9 8 7 7 7 6 5 6 6 6 4 3 3 4 4 2 1 1 3 4 3 2 2 3 4 3 4 4 4 4 4 4 4 3 3 3 3 3 4 4
8 9 9 8 8 6 5 5 6 6 5 5 5 5 4 4 3 3 2 1 1 2 3 2 2 3 4 5 4 4 5 5 4 4 4 4 3 3 3 4 4 4 4 4
7 7 7 6 6 5 5 5 4 4 4 3 3 3 3 3 3 3 1 0 1 4 4 2 3 7 8 5 4 4 5 5 5 4 4 3 3 3 3 4 4 4 4 4
6 6 6 5 6 6 4 3 3 3 3 3 3 3 4 3 2 2 3 5 6 7 4 4 7 8 8 5 4 5 5 5 4 4 4 4 4 4 4 4 4 4 4 5
5 5 5 6 5 3 2 2 3 4 4 3 3 4 3 3 3 2 3 4 6 6 3 4 6 7 6 4 4 4 4 4 4 4 4 4 4 4 4 4 4 5 5 5
4 3 2 2 2 2 2 3 3 2 3 3 3 3 3 4 4 4 4 4 5 5 3 3 3 4 4 4 5 5 5 5 6 5 5 5 5 5 5 5 7 5 5 5
3 3 3 3 3 3 2 3 3 2 2 3 3 2 2 3 3 4 4 4 3 3 3 3 3 4 4 4 5 5 5 5 5 5 5 5 5 5 5 6 5 5 5 5
Wind_Direction
244 245 224 223 203 181 177 178 180 202 192 211 209 187 193 178 163 146 148 158 169 183 186 188 188 190 191 193 191 188 186 192 199 200 197 193 191 190 189 188 191 187 187 193
308 288 257 266 229 209 201 183 179 170 215 212 193 156 129 123 124 129 139 149 162 181 187 189 191 191 191 192 192 185 186 195 196 192 192 196 199 194 192 196 198 192 195 198
287 300 359 273 239 217 196 171 161 189 207 148 134 133 139 125 105 103 113 117 114 125 165 168 178 183 184 187 180 178 185 189 189 190 196 202 203 199 199 200 199 203 206 203
206 27 232 248 294 158 121 102 122 152 144 133 126 103 77 87 101 95 96 94 85 78 69 61 89 144 164 161 164 174 180 185 184 185 193 194 194 201 205 203 205 210 212 209
160 189 252 286 310 83 109 66 80 125 126 124 119 88 57 56 84 93 90 85 79 76 75 70 65 94 125 131 146 163 178 182 183 187 188 186 192 198 201 203 210 212 210 211
153 174 216 239 262 242 113 140 181 135 144 144 129 116 132 104 92 86 79 74 70 72 71 67 59 73 86 92 105 122 145 151 158 172 177 183 192 195 197 198 208 205 216 217
175 203 231 248 257 199 165 202 174 138 136 126 113 128 129 111 96 88 81 75 72 70 65 55 56 72 75 73 77 85 92 94 97 108 136 157 162 166 162 169 170 186 216 225
152 184 234 313 265 187 192 152 139 130 120 107 106 111 113 105 96 88 81 74 72 72 65 54 58 71 70 59 48 58 69 71 72 78 84 94 107 112 120 130 137 157 177 241
179 200 270 319 277 220 126 118 118 118 117 116 116 115 111 103 96 88 83 77 73 77 71 57 53 66 70 55 52 61 63 60 58 57 59 64 87 114 126 132 151 169 179 194
96 304 319 15 41 78 102 103 110 117 116 114 114 114 110 105 98 92 86 81 76 76 73 60 50 56 60 54 58 66 63 57 57 58 51 49 59 87 109 118 126 127 147 170
143 202 61 48 70 89 96 97 100 104 107 112 115 112 111 107 103 99 93 86 82 82 79 68 57 54 50 52 60 61 58 54 50 52 59 55 50 58 84 97 139 144 166 172
196 195 142 129 108 106 106 106 110 112 105 104 110 110 106 103 103 101 98 93 89 84 80 70 61 53 42 45 59 61 53 48 44 45 48 48 47 32 34 58 59 85 114 127
123 108 111 105 99 107 109 110 112 112 113 111 107 107 105 103 100 98 96 95 95 92 86 75 64 50 35 41 53 57 54 45 39 38 33 32 45 51 27 20 34 44 56 77
96 101 98 98 100 102 105 106 104 100 100 103 104 103 104 100 95 94 97 99 96 88 78 70 62 45 31 45 51 48 46 42 41 31 24 28 38 50 78 82 45 21 27 45
69 91 108 106 99 98 100 104 102 101 101 100 101 102 103 101 99 99 99 96 87 79 73 66 58 34 24 42 47 42 37 28 26 25 26 33 40 49 59 71 78 63 29 18
97 96 101 103 103 100 102 105 106 106 107 105 102 103 105 107 106 102 96 97 94 87 78 69 55 27 31 44 41 34 27 24 29 30 28 32 37 44 49 61 69 65 49 7
111 109 108 107 103 103 105 108 111 112 110 111 115 114 108 102 95 92 92 98 106 105 91 80 57 33 40 47 47 33 20 17 24 29 27 35 40 45 53 66 70 62 6 346
103 109 113 115 116 112 110 108 110 112 119 125 123 116 113 114 116 115 112 101 86 64 42 54 72 48 33 29 34 25 19 19 24 24 32 40 42 43 49 53 36 11 347 3
95 97 97 99 103 107 105 104 106 108 110 109 107 107 110 114 116 111 100 87 84 67 348 9 63 53 28 11 23 21 20 24 30 33 40 42 44 40 40 35 24 13 9 10
91 93 93 92 92 97 100 101 99 94 97 104 102 98 97 103 106 100 91 78 95 198 210 63 60 44 15 359 21 24 31 37 45 41 45 50 51 45 43 39 29 19 14 13
88 89 90 90 86 85 89 95 98 95 93 98 105 109 113 107 103 104 99 76 324 50 83 70 57 28 8 17 35 44 48 48 47 47 50 50 49 47 41 36 30 22 15 11
81 83 85 86 84 78 75 83 91 92 90 92 100 107 106 95 85 84 90 150 208 96 87 63 54 46 46 50 48 49 52 56 55 52 51 45 41 33 28 26 21 16 10 7
84 81 77 78 84 80 68 71 86 97 101 106 114 121 129 133 130 124 116 333 93 89 81 59 64 64 62 58 58 60 61 60 56 52 49 41 35 31 26 20 13 7 4 3
80 75 72 74 75 74 70 64 80 89 91 91 100 111 116 108 81 86 129 120 107 96 83 67 67 68 65 62 66 67 60 52 48 44 40 38 35 31 24 17 11 9 12 15
76 73 73 74 71 72 85 66 61 64 74 72 70 76 89 108 118 122 109 107 106 99 87 69 64 62 61 63 68 70 65 56 50 42 36 35 28 24 23 20 21 26 26 21
75 76 79 82 88 81 80 79 73 66 79 74 61 58 68 76 89 95 100 102 99 98 89 76 69 67 69 70 70 70 64 53 47 43 37 32 31 34 35 34 33 29 23 16
52 49 54 42 36 50 72 90 97 88 99 111 105 84 90 95 95 95 98 98 95 91 85 76 73 78 82 81 77 71 62 54 48 45 41 39 37 35 32 35 33 26 20 13
Height
1458 1453 1453 1453 1453 1454 1460 1465 1473 1471 1470 1465 1461 1461 1462 1462 1464 1466 1467 1470 1473 1476 1477 1480 1483 1485 1488 1491 1494 1498 1501 1503 1506 1509 1512 1514 1517 1519 1521 1523 1525 1526 1528 1529
1459 1450 1449 1450 1448 1449 1451 1454 1459 1462 1465 1457 1459 1461 1462 1463 1465 1466 1467 1469 1471 1473 1475 1477 1480 1482 1485 1489 1491 1494 1497 1500 1503 1506 1508 1510 1513 1515 1517 1519 1521 1523 1524 1525
1467 1455 1452 1459 1451 1448 1449 1449 1453 1459 1457 1455 1459 1461 1462 1463 1464 1465 1467 1468 1470 1471 1473 1474 1477 1479 1482 1485 1488 1491 1493 1496 1499 1502 1504 1506 1509 1511 1512 1514 1516 1518 1519 1520
1468 1464 1472 1458 1445 1443 1445 1448 1447 1449 1451 1453 1457 1461 1463 1464 1465 1467 1467 1468 1469 1470 1471 1473 1474 1476 1479 1482 1485 1488 1490 1493 1496 1499 1500 1502 1504 1506 1507 1509 1510 1512 1514 1515
1470 1471 1464 1452 1447 1446 1448 1454 1449 1450 1453 1456 1458 1462 1467 1468 1468 1468 1468 1469 1470 1471 1472 1472 1473 1475 1477 1479 1482 1485 1487 1489 1491 1494 1496 1498 1500 1501 1503 1505 1506 1507 1509 1510
1465 1468 1469 1453 1445 1445 1449 1459 1451 1450 1453 1455 1456 1466 1472 1471 1470 1470 1469 1470 1471 1472 1472 1472 1473 1475 1476 1477 1480 1482 1484 1487 1489 1492 1494 1495 1497 1498 1499 1500 1501 1503 1504 1505
1461 1463 1456 1447 1443 1445 1458 1456 1450 1450 1452 1455 1457 1463 1470 1471 1472 1472 1472 1472 1473 1473 1473 1474 1475 1476 1476 1478 1480 1482 1483 1485 1487 1489 1491 1492 1493 1494 1495 1496 1497 1497 1499 1500
1459 1463 1460 1446 1444 1447 1446 1444 1447 1450 1452 1455 1459 1465 1469 1471 1473 1474 1474 1475 1475 1475 1475 1477 1477 1477 1478 1479 1481 1482 1483 1484 1486 1487 1488 1489 1489 1490 1491 1492 1493 1494 1495 1496
1454 1455 1448 1445 1445 1443 1441 1444 1448 1451 1454 1456 1462 1468 1471 1473 1475 1476 1477 1478 1479 1478 1478 1479 1480 1480 1480 1482 1483 1483 1484 1484 1485 1486 1486 1487 1487 1488 1488 1490 1491 1491 1492 1493
1452 1449 1446 1445 1444 1444 1443 1446 1450 1453 1457 1460 1464 1469 1472 1474 1477 1479 1480 1481 1482 1482 1482 1483 1484 1484 1484 1485 1485 1485 1485 1486 1486 1486 1486 1486 1486 1486 1487 1488 1488 1489 1490 1490
1451 1449 1447 1447 1446 1446 1448 1450 1454 1457 1461 1464 1468 1471 1474 1477 1480 1481 1483 1484 1485 1485 1486 1487 1488 1488 1488 1488 1488 1487 1487 1487 1486 1486 1486 1486 1486 1486 1486 1486 1487 1487 1488 1488
1449 1446 1447 1449 1449 1449 1451 1455 1458 1461 1465 1469 1471 1474 1477 1480 1482 1484 1486 1488 1489 1489 1490 1491 1491 1491 1491 1491 1490 1489 1488 1488 1488 1487 1487 1487 1486 1486 1486 1486 1486 1486 1486 1486
1445 1446 1447 1450 1452 1454 1455 1459 1462 1465 1469 1473 1476 1478 1480 1483 1486 1488 1490 1491 1492 1493 1494 1494 1494 1494 1494 1493 1492 1491 1491 1490 1489 1488 1488 1487 1487 1486 1486 1486 1486 1485 1485 1485
1447 1448 1451 1454 1456 1458 1460 1464 1467 1471 1474 1477 1480 1482 1485 1487 1489 1491 1493 1494 1495 1496 1496 1496 1496 1495 1495 1494 1493 1493 1492 1491 1490 1489 1489 1488 1487 1486 1485 1484 1484 1484 1484 1483
1452 1452 1455 1458 1461 1463 1466 1468 1471 1475 1479 1482 1484 1486 1488 1490 1492 1494 1495 1496 1497 1498 1498 1498 1497 1497 1496 1495 1494 1493 1492 1491 1491 1490 1489 1488 1487 1486 1485 1484 1483 1483 1482 1481
1457 1458 1460 1462 1465 1469 1471 1473 1475 1479 1483 1485 1488 1490 1492 1494 1495 1496 1497 1498 1499 1499 1499 1499 1498 1498 1497 1496 1495 1494 1493 1492 1490 1489 1488 1487 1486 1485 1484 1483 1482 1481 1480 1479
1460 1463 1465 1468 1470 1473 1476 1478 1480 1483 1486 1489 1491 1493 1495 1496 1497 1498 1499 1500 1500 1500 1500 1500 1499 1498 1497 1496 1495 1494 1492 1491 1490 1488 1487 1486 1485 1483 1482 1481 1480 1478 1477 1476
1464 1466 1469 1471 1474 1477 1480 1483 1485 1487 1490 1492 1494 1495 1496 1497 1498 1499 1500 1500 1501 1500 1500 1499 1499 1498 1497 1495 1494 1492 1491 1490 1488 1487 1485 1484 1482 1481 1480 1479 1477 1476 1474 1473
1469 1471 1474 1476 1479 1481 1483 1486 1488 1490 1492 1494 1495 1496 1497 1498 1499 1500 1500 1500 1500 1500 1499 1499 1498 1497 1495 1494 1493 1491 1489 1488 1486 1485 1483 1482 1480 1479 1478 1476 1475 1473 1471 1469
1474 1476 1479 1481 1483 1485 1487 1489 1491 1493 1494 1495 1496 1497 1498 1499 1499 1499 1500 1500 1500 1499 1499 1498 1497 1495 1494 1492 1491 1489 1488 1486 1484 1483 1481 1480 1478 1477 1475 1474 1472 1470 1469 1467
1479 1481 1483 1485 1487 1488 1490 1491 1493 1494 1495 1496 1497 1497 1498 1498 1499 1499 1499 1499 1499 1499 1498 1497 1495 1494 1492 1491 1489 1488 1486 1484 1483 1481 1480 1478 1477 1475 1473 1472 1470 1468 1466 1464
1483 1485 1486 1488 1489 1491 1492 1493 1494 1495 1496 1497 1497 1497 1498 1498 1498 1498 1498 1498 1498 1497 1496 1495 1494 1492 1491 1489 1488 1486 1484 1483 1481 1480 1478 1477 1475 1474 1472 1470 1468 1467 1465 1463
1487 1488 1489 1490 1492 1493 1494 1495 1495 1496 1496 1497 1497 1497 1497 1497 1497 1497 1497 1497 1496 1495 1494 1493 1492 1491 1489 1488 1486 1485 1483 1482 1480 1479 1477 1476 1474 1473 1471 1469 1467 1465 1463 1461
1490 1491 1492 1493 1493 1494 1495 1495 1496 1496 1496 1496 1496 1496 1496 1496 1496 1496 1495 1495 1494 1493 1492 1491 1490 1489 1488 1486 1485 1484 1482 1481 1479 1478 1476 1475 1473 1472 1470 1468 1466 1464 1462 1459
1491 1492 1493 1494 1494 1495 1495 1495 1495 1496 1496 1496 1495 1495 1495 1495 1495 1494 1494 1493 1493 1492 1491 1490 1489 1488 1487 1486 1484 1483 1481 1480 1479 1477 1476 1474 1473 1471 1469 1467 1465 1463 1461 1458
1492 1493 1494 1494 1494 1495 1495 1495 1495 1495 1495 1495 1494 1494 1494 1494 1493 1493 1492 1492 1491 1491 1490 1489 1488 1487 1486 1485 1484 1483 1481 1480 1478 1477 1476 1474 1472 1470 1468 1467 1465 1462 1460 1457
1493 1493 1494 1494 1494 1495 1495 1494 1494 1494 1494 1494 1494 1493 1493 1493 1492 1492 1491 1490 1490 1489 1489 1488 1487 1486 1485 1484 1484 1482 1481 1480 1478 1477 1475 1474 1472 1470 1468 1466 1464 1462 1459 1456